Regional Weather Roundup
Issued by NWS State College, PA

Home | Current Version | Previous Version | Graphics & Text | Print | Product List | Glossary On
Versions: 1 2 3 4 5 6 7 8 9 10 11 12 13 14 15 16 17 18 19 20 21 22 23 24 25 26 27 28 29 30 31 32 33 34 35 36 37 38 39 40 41 42 43 44 45 46 47 48 49 50
000
ASUS41 KCTP 200610
RWRCTP

REGIONAL WEATHER ROUNDUP
NATIONAL WEATHER SERVICE STATE COLLEGE PA
100 AM EST TUE FEB 20 2018

Note: "fair" indicates few or no clouds below 12,000 feet with no
significant weather and/or obstructions to visibility.

* = STATION THAT DOES NOT REPORT PRECIPITATION /E.G. RAIN...SNOW...ETC/
    THUNDER OR FOG.

PAZ002>004-007>009-013>016-020>023-029>032-200700-
WESTERN PENNSYLVANIA

CITY           SKY/WX    TMP DP  RH WIND       PRES   REMARKS
ERIE           CLOUDY    63  55  75 SW9       30.04R
MEADVILLE      CLOUDY    61  54  77 S12G24    30.08S
FRANKLIN*      FAIR      56  52  86 S12       30.12S
NEW CASTLE     FAIR      61  56  83 VRB6      30.11F
BEAVER COUNTY  NOT AVBL
BUTLER*        FAIR      59  52  77 S9        30.14S
PITTSBURGH INT FAIR      64  51  62 S10       30.14R
PITTSBURGH     FAIR      61  50  67 S13       30.15S
INDIANA*       CLEAR     61  54  77 SW8       30.20F
LATROBE        FAIR      61  52  72 SW12      30.18S
WASHINGTON CO* FAIR      63  52  67 S9        30.19S
$$

PAZ004>006-010>012-017>019-024>028-033>037-041-042-045-046-049>053-200700-
CENTRAL PENNSYLVANIA

CITY           SKY/WX    TMP DP  RH WIND       PRES   REMARKS
BRADFORD       FAIR      53  51  93 VRB7      30.13F
DUBOIS         FAIR      55  49  80 SW8       30.15S
CLEARFIELD     FOG       36  35  96 N7        30.19S VSB 1/2
JOHNSTOWN      FAIR      59  50  72 SW12G21   30.20F
ALTOONA        FOG       37  36  96 CALM      30.23F VSB 3/4
STATE COLLEGE  FAIR      38  37  99 CALM      30.23F FOG
WILLIAMSPORT   CLOUDY    40  40 100 S3        30.27S FOG
SELINSGROVE    FOG       39  39 100 CALM      30.29S VSB 1/4
FT INDIANTOWN  FOG       40  40 100 CALM      30.30F VSB 1/4
CAPITAL CITY   CLOUDY    44  44 100 CALM      30.31S FOG
HARRISBURG     FOG       42  41  96 CALM      30.30S VSB 1
YORK           CLOUDY    47  46  97 CALM      30.30S
$$

PAZ038>040-043-044-047-048-054-055-060>062-067>071-200700-
EASTERN PENNSYLVANIA

CITY           SKY/WX    TMP DP  RH WIND       PRES   REMARKS
SCRANTON       CLOUDY    39  39 100 CALM      30.26F FOG
MOUNT POCONO   CLOUDY    40  40 100 W9        30.24F
ALLENTOWN      FOG       38  35  89 CALM      30.31F VSB 1/4
QUAKERTOWN*    FOG       37  37 100 CALM      30.31F VSB 1/4
READING        FOG       38  38 100 CALM      30.31F VSB 1/4
LANCASTER      FOG       43  43 100 E3        30.31S VSB 1/4
COATESVILLE    FOG       46 N/A N/A CALM      30.33R VSB 1/4
POTTSTOWN      FOG       41  41 100 CALM      30.33S VSB 1/2
BLUE BELL      CLOUDY    46  46 100 CALM      30.34R
DOYLESTOWN     FOG       43  43 100 SW3       30.31S VSB 1/2
WILLOW GROVE   NOT AVBL
NORTH PHILA    CLOUDY    52  50  93 SW8       30.34S FOG
PHILADELPHIA   FOG       47  47 100 W7        30.34S VSB 1/2
$$



USA.gov is the U.S. government's official web portal to all federal, state and local government web resources and services.